Regional Weather Roundup
Issued by NWS

Home | Current Version | Previous Version | Text Only | Print | Product List | Glossary On
Versions: 1 2 3 4 5 6 7 8 9 10 11 12 13 14 15 16 17 18 19 20 21 22 23 24 25 26 27 28 29 30 31 32 33 34 35 36 37 38 39 40 41 42 43 44 45 46 47 48 49 50
000
ASUS43 KFSD 251302
RWRSD

WEATHER ROUNDUP FOR SOUTH DAKOTA
NATIONAL WEATHER SERVICE SIOUX FALLS SD
800 AM CDT MON MAY 25 2015

NOTE: "FAIR" INDICATES FEW OR NO CLOUDS BELOW 12,000 FEET WITH NO
SIGNIFICANT WEATHER AND/OR OBSTRUCTIONS TO VISIBILITY.


SDZ001>005-009-010-012>017-251400-
NORTHWEST AND NORTH CENTRAL SOUTH DAKOTA

CITY           SKY/WX    TMP DP  RH WIND       PRES   REMARKS
FAITH            N/A     54  52  93 NE9       29.81S
MOBRIDGE         N/A     57  57 100 NE7       29.79R
$$

SDZ012>016-024>037-041>051-057-063-072>074-251400-
SOUTHWEST AND SOUTH CENTRAL SOUTH DAKOTA

CITY           SKY/WX    TMP DP  RH WIND       PRES   REMARKS
RAPID CTY ARPT CLOUDY    53  50  89 N13       29.83S
PIERRE         CLOUDY    57  56  96 NE7       29.77S
CUSTER         CLOUDY    46  42  86 CALM      29.86S
ELLSWORTH AFB  PTSUNNY   52  51  95 NW9       29.82F
PHILIP         CLOUDY    55  53  93 N10       29.80S
PINE RIDGE     CLOUDY    53  50  89 N10       29.81R
WINNER         CLOUDY    58  56  93 E6        29.77R FOG
$$

SDZ004>011-016>023-039-040-251400-
NORTHEAST SOUTH DAKOTA

CITY           SKY/WX    TMP DP  RH WIND       PRES   REMARKS
ABERDEEN       CLOUDY    57  55  93 N12       29.76S
WATERTOWN      CLOUDY    57  55  93 N9        29.73R
BROOKINGS      CLOUDY    57  55  94 NW6       29.75R
$$

SDZ017-020-022-023-036>040-048>070-251400-
SOUTHEAST SOUTH DAKOTA

CITY           SKY/WX    TMP DP  RH WIND       PRES   REMARKS
SIOUX FALLS    CLOUDY    59  57  93 W5        29.75R
HURON          CLOUDY    57  57 100 CALM      29.76R FOG
CHAMBERLAIN    FOG       56  56 100 N3        29.76S VSB 3/4
MITCHELL       FOG       59  59 100 N7        29.74F VSB 3/4
YANKTON        CLOUDY    59  57  94 NW3       29.74S
$$

ABBREVIATIONS USED IN REMARKS
   TC - TEMPERATURE IN CELSIUS
  WCI - WIND CHILL INDEX
   HX - HEAT INDEX
  VSB - VISIBILITY




USA.gov is the U.S. government's official web portal to all federal, state and local government web resources and services.